Location: Melizzano
(41.1500°N, 14.5000°E)
Time: 08:35:37
(UTC+00:00)

Cosmos 2082 Rocket - Pass Details

Date: 11 May 2021
Orbit: 834 x 853 km, 71.0° (Epoch: 20 June)

Event Time Altitude Azimuth Distance (km) Brightness Sun altitude
Rises 19:54:32 0° 345° (NNW) 3,390 6.4 -17.0°
Reaches altitude 10° 19:57:20 10° 357° (N) 2,453 5.3 -17.4°
Maximum altitude 20:02:08 28° 55° (NE) 1,521 3.4 -18.1°
Enters shadow 20:04:27 21° 93° (E) 1,783 3.5 -18.4°
